map of BEL home
Great Circle Mapper logo
BEL - Airport
Location
City:  Belém, Pará, Brazil
Name:Belém International - Val-de-Căes
Old (Alt.):Júlio Cezar Ribeiro
ICAO / IATA:SBBE / BEL

Details
Type:Airport (Aerodrome, Airfield)
Use:Public/Civil, Military, International (customs port of entry)
Latitude:1°22'45"S (-1.379249)
Longitude:48°28'35"W (-48.476291)
Datum:WGS 1984
Elevation:54 ft (16 m)
Runways:2
Longest:9180 × 148 ft (2798 × 45 m), paved

Time
Time Zone:UTC-3
Local Time:

Weather
METAR:SBBE 290500Z 04005KT CAVOK 25/23 Q1013
TAF:SBBE 290400Z 2906/3006 07005KT CAVOK TN23/2907Z TX32/2916Z
BECMG 2908/2910 08010KT
BECMG 2912/2914 05010KT 9999 BKN035
BECMG 2917/2919 SCT030 B ECMG 2921/2923 CAVOK
BECMG 3003/3005 07005KT
RMK PDY

Related Locations
Nearby:
Farthest:WAXX: 12273 mi / 19751 km
Sorong [Dominique Edward Osok (Sorong Mainland)], Jaya Island, ID

Find:

   beyond  
but within

Other Information
Maps:
NOTAMs:
Links:
Sources:

  
flag of Brazil
flag of Pará
  

Sectional Chart

Flight Planning
at skyvector.com

Satellite Image

Google Maps Satellite View

 

Copyright © 2004-2014 Karl L. Swartz. All rights reserved.
The Great Circle Mapper name and logo are trademarks of the Great Circle Mapper.
All other trademarks mentioned herein belong to their respective owners.
Please see credits for attibutions and further copyright information.

  Follow gcmap on Facebook Follow gcmap on Twitter

hCard Microformat

Geo Microformat